Red Bluff, CA

9:48 AM PDT on October 20, 2019 (GMT -0700)
Red Bluff Municipal

Weather History for KRBL - September, 2019

Change the Weather History Date:

Thursday, September 19, 2019

  Actual Average Record
Temperature  
Mean Temperature 66 °F -  
Max Temperature 81 °F 87 °F 106 °F (2000)
Min Temperature 52 °F 59 °F 45 °F (1941)
Cooling Degree Days 2    
Growing Degree Days 16 (Base 50)    
Moisture  
Dew Point 47 °F    
Average Humidity 55    
Maximum Humidity 90    
Minimum Humidity 16    
Precipitation  
Precipitation 0.00 in - - ()
Sea Level Pressure  
Sea Level Pressure 29.93 in    
Wind  
Wind Speed 7 mph (NNW)    
Max Wind Speed 16 mph    
Max Gust Speed 21 mph    
Visibility 10 miles    
Events      
Averages and records for this station are not official NWS values.
T = Trace of Precipitation, MM = Missing Value Source: NWS Daily Summary

Daily Weather History Graph

Daily Weather History Graph

Search for Another Location

Airport or City:

Astronomy

Sep. 19, 2019 Rise Set
Actual Time 6:53 AM PDT 7:11 PM PDT
Civil Twilight 6:26 AM PDT 7:38 PM PDT
Nautical Twilight 5:54 AM PDT 8:10 PM PDT
Astronomical Twilight 5:21 AM PDT 8:42 PM PDT
Moon 10:23 PM PDT (9/19) 12:02 PM PDT (9/19)
Length of Visible Light 13h 11m
Length of Day
12h 17m
Waning Gibbous, 73% of the Moon is Illuminated
Sep 19
Waning Gibbous
Sep 21
Last Quarter
Sep 28
New
Oct 5
First Quarter
Oct 13
Full

Hourly Weather History & Observations

Time (PDT) Temp. Dew Point Humidity Pressure Visibility Wind Dir Wind Speed Gust Speed Precip Events Conditions
12:54 AM 55.9 °F 52.0 °F 87% 29.92 in 10.0 mi ENE 4.6 mph - N/A   Clear
1:54 AM 54.0 °F 51.1 °F 90% 29.94 in 10.0 mi Calm Calm - N/A   Clear
2:54 AM 53.1 °F 50.0 °F 89% 29.94 in 10.0 mi NW 4.6 mph - N/A   Clear
3:54 AM 53.1 °F 50.0 °F 89% 29.93 in 10.0 mi WNW 3.5 mph - N/A   Clear
4:54 AM 52.0 °F 48.9 °F 89% 29.93 in 10.0 mi NW 5.8 mph - N/A   Clear
5:54 AM 52.0 °F 48.9 °F 89% 29.93 in 10.0 mi NNW 5.8 mph - N/A   Clear
6:54 AM 53.1 °F 50.0 °F 89% 29.95 in 10.0 mi North 5.8 mph - N/A   Clear
7:54 AM 55.0 °F 51.1 °F 86% 29.96 in 10.0 mi NW 6.9 mph - N/A   Clear
8:54 AM 60.1 °F 53.1 °F 78% 29.96 in 10.0 mi NNW 6.9 mph - N/A   Clear
9:54 AM 64.9 °F 51.1 °F 61% 29.96 in 10.0 mi NNW 13.8 mph - N/A   Clear
10:54 AM 70.0 °F 50.0 °F 49% 29.96 in 10.0 mi North 10.4 mph - N/A   Clear
11:54 AM 73.9 °F 46.0 °F 37% 29.95 in 10.0 mi NNW 11.5 mph 19.6 mph N/A   Clear
12:54 PM 75.9 °F 45.0 °F 33% 29.94 in 10.0 mi NNE 16.1 mph 20.7 mph N/A   Clear
1:54 PM 78.1 °F 44.1 °F 30% 29.93 in 10.0 mi NNE 10.4 mph - N/A   Mostly Cloudy
2:54 PM 79.0 °F 43.0 °F 28% 29.92 in 10.0 mi NE 6.9 mph - N/A   Partly Cloudy
3:54 PM 80.1 °F 44.1 °F 28% 29.91 in 10.0 mi North 15.0 mph - N/A   Clear
4:54 PM 80.1 °F 42.1 °F 26% 29.91 in 10.0 mi North 13.8 mph 20.7 mph N/A   Clear
5:54 PM 79.0 °F 41.0 °F 26% 29.91 in 10.0 mi North 12.7 mph - N/A   Clear
6:54 PM 75.9 °F 42.1 °F 30% 29.90 in 10.0 mi NNW 6.9 mph - N/A   Clear
7:54 PM 70.0 °F 43.0 °F 38% 29.90 in 10.0 mi NNW 6.9 mph - N/A   Clear
8:54 PM 68.0 °F 44.1 °F 42% 29.91 in 10.0 mi NW 8.1 mph - N/A   Clear
9:54 PM 66.0 °F 44.1 °F 45% 29.92 in 10.0 mi NNW 6.9 mph - N/A   Clear
10:54 PM 64.0 °F 45.0 °F 50% 29.94 in 10.0 mi Calm Calm - N/A   Clear
11:54 PM 64.0 °F 45.0 °F 50% 29.94 in 10.0 mi NW 8.1 mph - N/A   Clear